STARLINK-1125 (44950 NORAD) Tracking and Keplerian Element Data

This shows tracking and keplerian element data for the satellite.

Feedback or suggestion? Click here.




ElementValue
Catalog44950
NameSTARLINK-1125
Epoch Orbit1360
Epoch Day94.25001157
Epoch Year2020
RAAN332.2858
Inclination52.9887
Eccentricity0.0001652
Argument of Perigee68.2248
Mean Anonmoly239.4727
Mean Motion15.05602476
Decay Rate-0.00023818
L11 44950U 20001AN 20094.25001157 -.00023818 00000-0 -16200-2 0 9996
L22 44950 52.9887 332.2858 0001652 68.2248 239.4727 15.05602476 13608

Live tracking and technical data element details for STARLINK-1125 (NORAD 44950). STARLINK-1125 can be tracked NOW for your location showing map with azimuth and elevation plus other details from your city location.

Track the satellite on the map from your city or location and see movement details for azimuth, elevation, latitude, longitude, range, height, and movement on the map or in text.







IsCatalogInMostPopularTable: catalog: 44950, numindb: 19
Update: records affected: 1



GetName: 44950 STARLINK-1125

Hit Count: updated at: Fri, 10 Apr 2020 20:06:14 GMT